Time,TemperatureF,DewpointF,PressureIn,WindDirection,WindDirectionDegrees,WindSpeedMPH,WindSpeedGustMPH,Humidity,HourlyPrecipIn,Conditions,Clouds,dailyrainin,SoftwareType,DateUTC
2013-04-30 00:02:00,69.8,57.6,29.72,SE,146,4.0,23.0,65,0.00,,,0.00,meteohub,2013-04-30 05:02:00,
2013-04-30 00:07:00,69.6,57.4,29.72,SE,136,8.0,23.0,65,0.00,,,0.00,meteohub,2013-04-30 05:07:00,
2013-04-30 00:12:00,69.4,57.2,29.72,SE,131,9.0,23.0,65,0.00,,,0.00,meteohub,2013-04-30 05:12:00,
2013-04-30 00:17:00,69.3,57.4,29.72,SSE,166,4.0,23.0,66,0.00,,,0.00,meteohub,2013-04-30 05:17:00,
2013-04-30 00:22:00,69.1,57.2,29.72,SSE,151,2.0,23.0,66,0.00,,,0.00,meteohub,2013-04-30 05:22:00,
2013-04-30 00:27:00,68.9,57.6,29.72,SE,142,5.0,17.0,67,0.00,,,0.00,meteohub,2013-04-30 05:27:00,
2013-04-30 00:32:00,68.7,57.4,29.71,East,85,1.0,17.0,67,0.00,,,0.00,meteohub,2013-04-30 05:32:00,
2013-04-30 00:37:00,68.5,57.2,29.71,SSE,167,0.0,17.0,67,0.00,,,0.00,meteohub,2013-04-30 05:37:00,
2013-04-30 00:42:00,68.4,57.4,29.71,SSE,155,2.0,17.0,68,0.00,,,0.00,meteohub,2013-04-30 05:42:00,
2013-04-30 00:47:00,68.4,57.4,29.71,ESE,103,1.0,17.0,68,0.00,,,0.00,meteohub,2013-04-30 05:47:00,
2013-04-30 00:53:00,68.2,57.2,29.71,SSE,151,5.0,17.0,68,0.00,,,0.00,meteohub,2013-04-30 05:53:00,
2013-04-30 00:58:00,68.2,57.6,29.71,ESE,117,1.0,17.0,69,0.00,,,0.00,meteohub,2013-04-30 05:58:00,
2013-04-30 01:03:00,67.8,57.2,29.70,SSE,150,6.0,12.0,69,0.00,,,0.00,meteohub,2013-04-30 06:03:00,
2013-04-30 01:08:00,67.8,57.7,29.70,SSE,163,0.0,12.0,70,0.00,,,0.00,meteohub,2013-04-30 06:08:00,
2013-04-30 01:13:00,67.8,57.7,29.70,SSE,153,0.0,12.0,70,0.00,,,0.00,meteohub,2013-04-30 06:13:00,
2013-04-30 01:18:00,67.6,57.6,29.70,SE,132,0.0,12.0,70,0.00,,,0.00,meteohub,2013-04-30 06:18:00,
2013-04-30 01:23:00,67.6,57.9,29.70,SE,140,5.0,12.0,71,0.00,,,0.00,meteohub,2013-04-30 06:23:00,
2013-04-30 01:28:00,67.5,57.7,29.70,SE,135,0.0,10.0,71,0.00,,,0.00,meteohub,2013-04-30 06:28:00,
2013-04-30 01:33:00,67.5,57.7,29.70,SSE,155,4.0,10.0,71,0.00,,,0.00,meteohub,2013-04-30 06:33:00,
2013-04-30 01:38:00,67.3,57.6,29.70,SSE,163,4.0,10.0,71,0.00,,,0.00,meteohub,2013-04-30 06:38:00,
2013-04-30 01:43:00,67.1,57.4,29.70,SSE,148,0.0,10.0,71,0.00,,,0.00,meteohub,2013-04-30 06:43:00,
2013-04-30 01:48:00,66.9,57.6,29.70,SSE,161,0.0,12.0,72,0.00,,,0.00,meteohub,2013-04-30 06:48:00,
2013-04-30 01:53:00,66.7,57.4,29.70,SSE,161,0.0,12.0,72,0.00,,,0.00,meteohub,2013-04-30 06:53:00,
2013-04-30 01:58:00,66.6,57.2,29.70,SSE,147,5.0,12.0,72,0.00,,,0.00,meteohub,2013-04-30 06:58:00,
2013-04-30 02:03:00,66.4,57.4,29.70,SE,132,0.0,12.0,73,0.00,,,0.00,meteohub,2013-04-30 07:03:00,
2013-04-30 02:08:00,66.2,57.2,29.70,SE,132,0.0,12.0,73,0.00,,,0.00,meteohub,2013-04-30 07:08:00,
2013-04-30 02:13:00,66.0,57.6,29.70,SE,132,0.0,6.0,74,0.00,,,0.00,meteohub,2013-04-30 07:13:00,
2013-04-30 02:18:00,65.8,57.4,29.70,SE,142,0.0,6.0,74,0.00,,,0.00,meteohub,2013-04-30 07:18:00,
2013-04-30 02:23:00,65.7,57.2,29.70,SE,142,0.0,6.0,74,0.00,,,0.00,meteohub,2013-04-30 07:23:00,
2013-04-30 02:28:00,65.5,57.4,29.70,SE,142,0.0,6.0,75,0.00,,,0.00,meteohub,2013-04-30 07:28:00,
2013-04-30 02:33:00,65.5,57.4,29.70,SE,142,0.0,0.0,75,0.00,,,0.00,meteohub,2013-04-30 07:33:00,
2013-04-30 02:38:00,65.1,57.0,29.71,SE,142,0.0,0.0,75,0.00,,,0.00,meteohub,2013-04-30 07:38:00,
2013-04-30 02:43:00,65.1,57.4,29.71,SE,142,0.0,0.0,76,0.00,,,0.00,meteohub,2013-04-30 07:43:00,
2013-04-30 02:48:00,64.9,57.2,29.71,SE,142,0.0,0.0,76,0.00,,,0.00,meteohub,2013-04-30 07:48:00,
2013-04-30 02:53:00,64.9,57.2,29.71,SE,142,0.0,0.0,76,0.00,,,0.00,meteohub,2013-04-30 07:53:00,
2013-04-30 02:58:00,64.8,57.4,29.70,SE,142,0.0,0.0,77,0.00,,,0.00,meteohub,2013-04-30 07:58:00,
2013-04-30 03:03:00,64.8,57.4,29.71,SE,142,0.0,0.0,77,0.00,,,0.00,meteohub,2013-04-30 08:03:00,
2013-04-30 03:08:00,64.6,57.2,29.70,SE,142,0.0,0.0,77,0.00,,,0.00,meteohub,2013-04-30 08:08:00,
2013-04-30 03:13:00,64.2,57.2,29.70,SE,142,0.0,0.0,78,0.00,,,0.00,meteohub,2013-04-30 08:13:00,
2013-04-30 03:18:00,64.2,57.2,29.70,SE,142,0.0,0.0,78,0.00,,,0.00,meteohub,2013-04-30 08:18:00,
2013-04-30 03:23:00,64.0,57.0,29.70,SE,142,0.0,0.0,78,0.00,,,0.00,meteohub,2013-04-30 08:23:00,
2013-04-30 03:28:00,63.9,56.8,29.70,SE,142,0.0,0.0,78,0.00,,,0.00,meteohub,2013-04-30 08:28:00,
2013-04-30 03:33:00,63.7,57.0,29.70,SE,142,0.0,0.0,79,0.00,,,0.00,meteohub,2013-04-30 08:33:00,
2013-04-30 03:38:00,63.5,56.8,29.70,SE,142,0.0,0.0,79,0.00,,,0.00,meteohub,2013-04-30 08:38:00,
2013-04-30 03:43:00,63.3,56.7,29.70,SE,142,0.0,0.0,79,0.00,,,0.00,meteohub,2013-04-30 08:43:00,
2013-04-30 03:48:00,63.1,56.8,29.70,SE,142,0.0,0.0,80,0.00,,,0.00,meteohub,2013-04-30 08:48:00,
2013-04-30 03:53:00,63.1,56.8,29.70,SE,142,0.0,0.0,80,0.00,,,0.00,meteohub,2013-04-30 08:53:00,
2013-04-30 03:58:00,63.0,56.7,29.70,SE,142,0.0,0.0,80,0.00,,,0.00,meteohub,2013-04-30 08:58:00,
2013-04-30 04:03:00,62.8,56.8,29.70,SE,142,0.0,0.0,81,0.00,,,0.00,meteohub,2013-04-30 09:03:00,
2013-04-30 04:08:00,62.6,56.7,29.70,SE,142,0.0,0.0,81,0.00,,,0.00,meteohub,2013-04-30 09:08:00,
2013-04-30 04:13:00,62.2,56.3,29.70,SE,142,0.0,0.0,81,0.00,,,0.00,meteohub,2013-04-30 09:13:00,
2013-04-30 04:18:00,62.1,56.5,29.70,SE,142,0.0,0.0,82,0.00,,,0.00,meteohub,2013-04-30 09:18:00,
2013-04-30 04:23:00,61.9,56.7,29.70,SE,142,0.0,0.0,83,0.00,,,0.00,meteohub,2013-04-30 09:23:00,
2013-04-30 04:28:00,61.5,56.3,29.70,SE,142,0.0,0.0,83,0.00,,,0.00,meteohub,2013-04-30 09:28:00,
2013-04-30 04:33:00,61.3,56.1,29.70,SE,142,0.0,0.0,83,0.00,,,0.00,meteohub,2013-04-30 09:33:00,
2013-04-30 04:38:00,61.3,56.5,29.70,SE,142,0.0,0.0,84,0.00,,,0.00,meteohub,2013-04-30 09:38:00,
2013-04-30 04:43:00,61.2,56.3,29.70,SE,142,0.0,0.0,84,0.00,,,0.00,meteohub,2013-04-30 09:43:00,
2013-04-30 04:48:00,61.0,56.1,29.70,SE,142,0.0,0.0,84,0.00,,,0.00,meteohub,2013-04-30 09:48:00,
2013-04-30 04:53:00,60.6,56.1,29.70,SE,142,0.0,0.0,85,0.00,,,0.00,meteohub,2013-04-30 09:53:00,
2013-04-30 04:58:00,60.6,56.1,29.70,SE,142,0.0,0.0,85,0.00,,,0.00,meteohub,2013-04-30 09:58:00,
2013-04-30 05:03:00,60.4,55.9,29.70,SE,142,0.0,0.0,85,0.00,,,0.00,meteohub,2013-04-30 10:03:00,
2013-04-30 05:08:00,60.3,56.1,29.70,SE,142,0.0,0.0,86,0.00,,,0.00,meteohub,2013-04-30 10:08:00,
2013-04-30 05:13:00,60.3,56.1,29.69,SE,142,0.0,0.0,86,0.00,,,0.00,meteohub,2013-04-30 10:13:00,
2013-04-30 05:18:00,60.1,55.9,29.70,SE,142,0.0,0.0,86,0.00,,,0.00,meteohub,2013-04-30 10:18:00,
2013-04-30 05:23:00,60.1,55.9,29.70,SE,142,0.0,0.0,86,0.00,,,0.00,meteohub,2013-04-30 10:23:00,
2013-04-30 05:28:00,59.7,55.8,29.70,SE,142,0.0,0.0,87,0.00,,,0.00,meteohub,2013-04-30 10:28:00,
2013-04-30 05:33:00,59.7,55.8,29.70,SE,142,0.0,0.0,87,0.00,,,0.00,meteohub,2013-04-30 10:33:00,
2013-04-30 05:39:00,59.5,55.6,29.70,SE,142,0.0,0.0,87,0.00,,,0.00,meteohub,2013-04-30 10:39:00,
2013-04-30 05:44:00,59.4,55.4,29.70,SE,142,0.0,0.0,87,0.00,,,0.00,meteohub,2013-04-30 10:44:00,
2013-04-30 05:49:00,59.4,55.4,29.70,SE,142,0.0,0.0,87,0.00,,,0.00,meteohub,2013-04-30 10:49:00,
2013-04-30 05:54:00,59.2,55.4,29.70,SE,142,0.0,0.0,87,0.00,,,0.00,meteohub,2013-04-30 10:54:00,
2013-04-30 05:59:00,59.2,55.4,29.70,SE,142,0.0,0.0,87,0.00,,,0.00,meteohub,2013-04-30 10:59:00,
2013-04-30 06:04:00,59.0,55.2,29.70,SE,142,0.0,0.0,87,0.00,,,0.00,meteohub,2013-04-30 11:04:00,
2013-04-30 06:09:00,59.0,55.4,29.70,SE,142,0.0,0.0,88,0.00,,,0.00,meteohub,2013-04-30 11:09:00,
2013-04-30 06:14:00,59.2,55.6,29.70,SE,142,0.0,0.0,88,0.00,,,0.00,meteohub,2013-04-30 11:14:00,
2013-04-30 06:19:00,59.2,55.6,29.70,SE,142,0.0,0.0,88,0.00,,,0.00,meteohub,2013-04-30 11:19:00,
2013-04-30 06:24:00,59.4,55.8,29.71,SE,142,0.0,0.0,88,0.00,,,0.00,meteohub,2013-04-30 11:24:00,
2013-04-30 06:29:00,59.5,55.6,29.70,SE,142,0.0,1.0,87,0.00,,,0.00,meteohub,2013-04-30 11:29:00,
2013-04-30 06:34:00,59.7,55.8,29.70,SE,135,0.0,1.0,87,0.00,,,0.00,meteohub,2013-04-30 11:34:00,
2013-04-30 06:39:00,59.7,55.8,29.70,SSE,159,0.0,1.0,87,0.00,,,0.00,meteohub,2013-04-30 11:39:00,
2013-04-30 06:44:00,59.9,55.8,29.70,SE,129,4.0,4.0,86,0.00,,,0.00,meteohub,2013-04-30 11:44:00,
2013-04-30 06:49:00,60.1,55.9,29.71,SE,128,0.0,1.0,86,0.00,,,0.00,meteohub,2013-04-30 11:49:00,
2013-04-30 06:54:00,60.1,55.9,29.71,SE,144,2.0,2.0,86,0.00,,,0.00,meteohub,2013-04-30 11:54:00,
2013-04-30 06:59:00,60.1,55.9,29.71,SSE,161,0.0,1.0,86,0.00,,,0.00,meteohub,2013-04-30 11:59:00,
2013-04-30 07:04:00,60.1,55.9,29.71,SSE,161,0.0,6.0,86,0.00,,,0.00,meteohub,2013-04-30 12:04:00,
2013-04-30 07:09:00,60.1,55.9,29.72,SE,136,0.0,6.0,86,0.00,,,0.00,meteohub,2013-04-30 12:09:00,
2013-04-30 07:14:00,60.1,55.9,29.71,SE,134,0.0,6.0,86,0.00,,,0.00,meteohub,2013-04-30 12:14:00,
2013-04-30 07:19:00,60.1,55.9,29.72,SE,134,0.0,6.0,86,0.00,,,0.00,meteohub,2013-04-30 12:19:00,
2013-04-30 07:24:00,60.1,55.9,29.72,SE,134,0.0,6.0,86,0.00,,,0.00,meteohub,2013-04-30 12:24:00,
2013-04-30 07:29:00,60.3,56.1,29.72,SE,133,0.0,6.0,86,0.00,,,0.00,meteohub,2013-04-30 12:29:00,
2013-04-30 07:34:00,60.4,56.3,29.71,SE,135,0.0,6.0,86,0.00,,,0.00,meteohub,2013-04-30 12:34:00,
2013-04-30 07:39:00,60.6,56.1,29.71,SE,144,0.0,6.0,85,0.00,,,0.00,meteohub,2013-04-30 12:39:00,
2013-04-30 07:44:00,61.2,56.7,29.72,SE,142,0.0,4.0,85,0.00,,,0.00,meteohub,2013-04-30 12:44:00,
2013-04-30 07:49:00,61.3,56.5,29.72,SSE,164,2.0,4.0,84,0.00,,,0.00,meteohub,2013-04-30 12:49:00,
2013-04-30 07:54:00,61.9,57.0,29.72,SE,145,0.0,4.0,84,0.00,,,0.00,meteohub,2013-04-30 12:54:00,
2013-04-30 07:59:00,62.2,57.0,29.72,SE,140,0.0,4.0,83,0.00,,,0.00,meteohub,2013-04-30 12:59:00,
2013-04-30 08:04:00,62.4,56.8,29.72,South,178,0.0,4.0,82,0.00,,,0.00,meteohub,2013-04-30 13:04:00,
2013-04-30 08:09:00,63.0,57.4,29.72,South,177,0.0,4.0,82,0.00,,,0.00,meteohub,2013-04-30 13:09:00,
2013-04-30 08:14:00,63.5,57.6,29.72,SSE,150,0.0,4.0,81,0.00,,,0.00,meteohub,2013-04-30 13:14:00,
2013-04-30 08:19:00,64.0,57.7,29.72,SSE,157,0.0,4.0,80,0.00,,,0.00,meteohub,2013-04-30 13:19:00,
2013-04-30 08:24:00,64.6,58.3,29.72,South,171,0.0,8.0,80,0.00,,,0.00,meteohub,2013-04-30 13:24:00,
2013-04-30 08:29:00,65.1,58.5,29.72,SE,139,5.0,8.0,79,0.00,,,0.00,meteohub,2013-04-30 13:29:00,
2013-04-30 08:34:00,65.5,58.5,29.72,SE,126,0.0,8.0,78,0.00,,,0.00,meteohub,2013-04-30 13:34:00,
2013-04-30 08:39:00,65.7,58.3,29.72,SSE,161,0.0,8.0,77,0.00,,,0.00,meteohub,2013-04-30 13:39:00,
2013-04-30 08:45:00,65.8,58.5,29.72,SSE,151,0.0,8.0,77,0.00,,,0.00,meteohub,2013-04-30 13:45:00,
2013-04-30 08:50:00,66.2,59.2,29.72,SSE,163,0.0,8.0,78,0.00,,,0.00,meteohub,2013-04-30 13:50:00,
2013-04-30 08:55:00,66.4,59.4,29.73,SSE,155,4.0,7.0,78,0.00,,,0.00,meteohub,2013-04-30 13:55:00,
2013-04-30 09:00:00,66.4,59.0,29.72,SSE,155,0.0,7.0,77,0.00,,,0.00,meteohub,2013-04-30 14:00:00,
2013-04-30 09:05:00,66.6,59.2,29.72,South,171,6.0,7.0,77,0.00,,,0.00,meteohub,2013-04-30 14:05:00,
2013-04-30 09:10:00,66.6,59.2,29.72,South,178,0.0,7.0,77,0.00,,,0.00,meteohub,2013-04-30 14:10:00,
2013-04-30 09:15:00,66.7,59.4,29.72,South,173,1.0,7.0,77,0.00,,,0.00,meteohub,2013-04-30 14:15:00,
2013-04-30 09:20:00,66.9,59.5,29.72,South,191,0.0,7.0,77,0.00,,,0.00,meteohub,2013-04-30 14:20:00,
2013-04-30 09:25:00,67.5,59.5,29.72,South,191,0.0,13.0,76,0.00,,,0.00,meteohub,2013-04-30 14:25:00,
2013-04-30 09:30:00,68.2,60.3,29.71,South,180,1.0,13.0,76,0.00,,,0.00,meteohub,2013-04-30 14:30:00,
2013-04-30 09:35:00,69.1,60.8,29.71,WSW,242,0.0,13.0,75,0.00,,,0.00,meteohub,2013-04-30 14:35:00,
2013-04-30 09:40:00,70.0,61.0,29.72,WSW,238,0.0,13.0,73,0.00,,,0.00,meteohub,2013-04-30 14:40:00,
2013-04-30 09:45:00,70.3,60.4,29.71,SSW,201,0.0,13.0,71,0.00,,,0.00,meteohub,2013-04-30 14:45:00,
2013-04-30 09:50:00,70.5,60.6,29.71,South,177,0.0,13.0,71,0.00,,,0.00,meteohub,2013-04-30 14:50:00,
2013-04-30 09:55:00,71.1,60.8,29.71,SE,145,1.0,13.0,70,0.00,,,0.00,meteohub,2013-04-30 14:55:00,
2013-04-30 10:00:00,71.4,61.2,29.71,SW,231,2.0,8.0,70,0.00,,,0.00,meteohub,2013-04-30 15:00:00,
2013-04-30 10:05:00,72.0,61.2,29.71,SSW,192,0.0,8.0,69,0.00,,,0.00,meteohub,2013-04-30 15:05:00,
2013-04-30 10:10:00,72.3,61.2,29.71,SSW,211,0.0,8.0,68,0.00,,,0.00,meteohub,2013-04-30 15:10:00,
2013-04-30 10:15:00,72.9,61.3,29.71,SSW,198,0.0,8.0,67,0.00,,,0.00,meteohub,2013-04-30 15:15:00,
2013-04-30 10:20:00,73.8,61.7,29.70,SSE,157,0.0,8.0,66,0.00,,,0.00,meteohub,2013-04-30 15:20:00,
2013-04-30 10:25:00,74.1,61.2,29.70,SSW,197,0.0,8.0,64,0.00,,,0.00,meteohub,2013-04-30 15:25:00,
2013-04-30 10:30:00,74.7,61.2,29.70,SSE,163,0.0,8.0,63,0.00,,,0.00,meteohub,2013-04-30 15:30:00,
2013-04-30 10:35:00,75.4,61.9,29.70,South,182,1.0,12.0,63,0.00,,,0.00,meteohub,2013-04-30 15:35:00,
2013-04-30 10:40:00,75.9,61.5,29.70,South,171,4.0,12.0,61,0.00,,,0.00,meteohub,2013-04-30 15:40:00,
2013-04-30 10:45:00,76.3,61.9,29.70,South,182,3.0,12.0,61,0.00,,,0.00,meteohub,2013-04-30 15:45:00,
2013-04-30 10:50:00,76.3,61.3,29.70,West,267,1.0,12.0,60,0.00,,,0.00,meteohub,2013-04-30 15:50:00,
2013-04-30 10:55:00,76.6,61.2,29.69,South,177,7.0,12.0,59,0.00,,,0.00,meteohub,2013-04-30 15:55:00,
2013-04-30 11:00:00,76.8,61.3,29.69,SE,144,11.0,12.0,59,0.00,,,0.00,meteohub,2013-04-30 16:00:00,
2013-04-30 11:05:00,77.0,61.2,29.69,SW,236,0.0,12.0,58,0.00,,,0.00,meteohub,2013-04-30 16:05:00,
2013-04-30 11:10:00,77.5,61.5,29.69,SSW,201,0.0,12.0,58,0.00,,,0.00,meteohub,2013-04-30 16:10:00,
2013-04-30 11:15:00,78.1,61.5,29.69,ESE,121,5.0,12.0,57,0.00,,,0.00,meteohub,2013-04-30 16:15:00,
2013-04-30 11:20:00,78.4,61.5,29.69,East,98,1.0,12.0,56,0.00,,,0.00,meteohub,2013-04-30 16:20:00,
2013-04-30 11:25:00,79.0,61.0,29.68,South,170,6.0,12.0,54,0.00,,,0.00,meteohub,2013-04-30 16:25:00,
2013-04-30 11:30:00,78.8,60.8,29.68,SSW,209,3.0,12.0,54,0.00,,,0.00,meteohub,2013-04-30 16:30:00,
2013-04-30 11:35:00,79.0,61.0,29.68,SE,130,7.0,12.0,54,0.00,,,0.00,meteohub,2013-04-30 16:35:00,
2013-04-30 11:40:00,79.7,61.0,29.68,SSE,168,9.0,15.0,53,0.00,,,0.00,meteohub,2013-04-30 16:40:00,
2013-04-30 11:45:00,80.2,61.0,29.68,SSW,200,1.0,15.0,52,0.00,,,0.00,meteohub,2013-04-30 16:45:00,
2013-04-30 11:50:00,80.8,61.0,29.68,SW,223,4.0,15.0,51,0.00,,,0.00,meteohub,2013-04-30 16:50:00,
2013-04-30 11:55:00,81.5,60.4,29.68,SW,230,0.0,15.0,49,0.00,,,0.00,meteohub,2013-04-30 16:55:00,
2013-04-30 12:00:00,81.9,60.3,29.68,South,183,8.0,15.0,48,0.00,,,0.00,meteohub,2013-04-30 17:00:00,
2013-04-30 12:05:00,81.9,60.8,29.68,SSE,161,0.0,15.0,49,0.00,,,0.00,meteohub,2013-04-30 17:05:00,
2013-04-30 12:10:00,82.2,59.9,29.67,South,187,7.0,15.0,47,0.00,,,0.00,meteohub,2013-04-30 17:10:00,
2013-04-30 12:16:00,82.8,59.9,29.67,SSE,151,0.0,15.0,46,0.00,,,0.00,meteohub,2013-04-30 17:16:00,
2013-04-30 12:21:00,83.1,59.5,29.67,WSW,257,10.0,17.0,45,0.00,,,0.00,meteohub,2013-04-30 17:21:00,
2013-04-30 12:26:00,83.5,59.9,29.66,SSW,211,5.0,17.0,45,0.00,,,0.00,meteohub,2013-04-30 17:26:00,
2013-04-30 12:31:00,83.7,59.4,29.66,South,184,6.0,17.0,44,0.00,,,0.00,meteohub,2013-04-30 17:31:00,
2013-04-30 12:36:00,83.8,59.5,29.65,SSE,159,1.0,17.0,44,0.00,,,0.00,meteohub,2013-04-30 17:36:00,
2013-04-30 12:41:00,83.8,59.0,29.65,SSE,165,0.0,17.0,43,0.00,,,0.00,meteohub,2013-04-30 17:41:00,
2013-04-30 12:46:00,84.2,57.2,29.65,SSE,150,9.0,17.0,40,0.00,,,0.00,meteohub,2013-04-30 17:46:00,
2013-04-30 12:51:00,84.6,59.0,29.65,SW,216,2.0,17.0,42,0.00,,,0.00,meteohub,2013-04-30 17:51:00,
2013-04-30 12:56:00,84.7,57.7,29.64,SE,145,7.0,17.0,40,0.00,,,0.00,meteohub,2013-04-30 17:56:00,
2013-04-30 13:01:00,84.9,57.9,29.63,South,171,5.0,16.0,40,0.00,,,0.00,meteohub,2013-04-30 18:01:00,
2013-04-30 13:06:00,85.3,58.3,29.64,SSW,196,4.0,16.0,40,0.00,,,0.00,meteohub,2013-04-30 18:06:00,
2013-04-30 13:11:00,85.8,57.2,29.64,SSE,159,8.0,16.0,38,0.00,,,0.00,meteohub,2013-04-30 18:11:00,
2013-04-30 13:16:00,86.4,57.0,29.64,South,184,0.0,16.0,37,0.00,,,0.00,meteohub,2013-04-30 18:16:00,
2013-04-30 13:21:00,86.4,56.3,29.63,SSW,207,0.0,16.0,36,0.00,,,0.00,meteohub,2013-04-30 18:21:00,
2013-04-30 13:26:00,86.7,56.7,29.63,ESE,122,11.0,16.0,36,0.00,,,0.00,meteohub,2013-04-30 18:26:00,
2013-04-30 13:31:00,87.6,56.7,29.62,South,175,6.0,16.0,35,0.00,,,0.00,meteohub,2013-04-30 18:31:00,
2013-04-30 13:36:00,88.3,55.6,29.62,SW,230,4.0,16.0,33,0.00,,,0.00,meteohub,2013-04-30 18:36:00,
2013-04-30 13:41:00,88.7,55.9,29.62,South,180,9.0,13.0,33,0.00,,,0.00,meteohub,2013-04-30 18:41:00,
2013-04-30 13:46:00,88.5,54.9,29.62,SSW,196,2.0,13.0,32,0.00,,,0.00,meteohub,2013-04-30 18:46:00,
2013-04-30 13:51:00,88.5,55.8,29.62,SSE,151,1.0,13.0,33,0.00,,,0.00,meteohub,2013-04-30 18:51:00,
2013-04-30 13:56:00,88.7,55.0,29.62,SW,236,1.0,13.0,32,0.00,,,0.00,meteohub,2013-04-30 18:56:00,
2013-04-30 14:01:00,89.1,55.4,29.62,South,180,11.0,11.0,32,0.00,,,0.00,meteohub,2013-04-30 19:01:00,
2013-04-30 14:06:00,88.9,55.2,29.62,SSE,167,2.0,11.0,32,0.00,,,0.00,meteohub,2013-04-30 19:06:00,
2013-04-30 14:11:00,89.2,55.6,29.62,SSW,201,5.0,11.0,32,0.00,,,0.00,meteohub,2013-04-30 19:11:00,
2013-04-30 14:16:00,90.0,54.3,29.62,South,176,1.0,11.0,30,0.00,,,0.00,meteohub,2013-04-30 19:16:00,
2013-04-30 14:21:00,90.1,54.5,29.62,SSW,202,0.0,11.0,30,0.00,,,0.00,meteohub,2013-04-30 19:21:00,
2013-04-30 14:26:00,90.3,53.8,29.62,South,184,0.0,11.0,29,0.00,,,0.00,meteohub,2013-04-30 19:26:00,
2013-04-30 14:31:00,90.3,53.8,29.62,WSW,239,0.0,11.0,29,0.00,,,0.00,meteohub,2013-04-30 19:31:00,
2013-04-30 14:36:00,90.9,53.2,29.61,West,261,0.0,11.0,28,0.00,,,0.00,meteohub,2013-04-30 19:36:00,
2013-04-30 14:41:00,91.0,53.4,29.61,SSE,159,5.0,11.0,28,0.00,,,0.00,meteohub,2013-04-30 19:41:00,
2013-04-30 14:46:00,90.9,53.2,29.61,SSE,152,1.0,11.0,28,0.00,,,0.00,meteohub,2013-04-30 19:46:00,
2013-04-30 14:51:00,90.7,54.1,29.61,ESE,118,7.0,15.0,29,0.00,,,0.00,meteohub,2013-04-30 19:51:00,
2013-04-30 14:56:00,90.9,53.2,29.61,SSW,204,2.0,15.0,28,0.00,,,0.00,meteohub,2013-04-30 19:56:00,
2013-04-30 15:01:00,91.2,53.6,29.60,SE,143,5.0,15.0,28,0.00,,,0.00,meteohub,2013-04-30 20:01:00,
2013-04-30 15:06:00,91.2,52.5,29.60,South,191,0.0,15.0,27,0.00,,,0.00,meteohub,2013-04-30 20:06:00,
2013-04-30 15:11:00,91.4,52.7,29.60,South,184,2.0,15.0,27,0.00,,,0.00,meteohub,2013-04-30 20:11:00,
2013-04-30 15:16:00,91.8,53.1,29.60,South,176,0.0,15.0,27,0.00,,,0.00,meteohub,2013-04-30 20:16:00,
2013-04-30 15:21:00,91.9,52.2,29.60,SSE,150,0.0,15.0,26,0.00,,,0.00,meteohub,2013-04-30 20:21:00,
2013-04-30 15:26:00,92.3,52.5,29.60,SSE,155,4.0,15.0,26,0.00,,,0.00,meteohub,2013-04-30 20:26:00,
2013-04-30 15:31:00,92.7,51.6,29.60,SE,146,1.0,15.0,25,0.00,,,0.00,meteohub,2013-04-30 20:31:00,
2013-04-30 15:36:00,92.7,51.6,29.60,South,186,5.0,14.0,25,0.00,,,0.00,meteohub,2013-04-30 20:36:00,
2013-04-30 15:41:00,92.7,51.6,29.59,SE,124,6.0,14.0,25,0.00,,,0.00,meteohub,2013-04-30 20:41:00,
2013-04-30 15:46:00,92.1,51.3,29.59,SE,134,0.0,14.0,25,0.00,,,0.00,meteohub,2013-04-30 20:46:00,
2013-04-30 15:51:00,92.5,51.6,29.59,South,187,0.0,14.0,25,0.00,,,0.00,meteohub,2013-04-30 20:51:00,
2013-04-30 15:56:00,92.8,51.8,29.58,SW,225,2.0,13.0,25,0.00,,,0.00,meteohub,2013-04-30 20:56:00,
2013-04-30 16:01:00,92.8,51.8,29.58,SSE,167,0.0,13.0,25,0.00,,,0.00,meteohub,2013-04-30 21:01:00,
2013-04-30 16:06:00,93.4,52.3,29.58,ESE,117,1.0,13.0,25,0.00,,,0.00,meteohub,2013-04-30 21:06:00,
2013-04-30 16:11:00,93.6,51.3,29.58,SW,236,0.0,13.0,24,0.00,,,0.00,meteohub,2013-04-30 21:11:00,
2013-04-30 16:16:00,93.6,51.3,29.58,South,171,1.0,13.0,24,0.00,,,0.00,meteohub,2013-04-30 21:16:00,
2013-04-30 16:21:00,93.7,52.5,29.58,SE,135,8.0,10.0,25,0.00,,,0.00,meteohub,2013-04-30 21:21:00,
2013-04-30 16:26:00,93.4,51.3,29.57,SSE,160,7.0,10.0,24,0.00,,,0.00,meteohub,2013-04-30 21:26:00,
2013-04-30 16:31:00,93.0,52.0,29.57,SSE,157,0.0,10.0,25,0.00,,,0.00,meteohub,2013-04-30 21:31:00,
2013-04-30 16:36:00,93.4,52.3,29.57,ESE,104,0.0,10.0,25,0.00,,,0.00,meteohub,2013-04-30 21:36:00,
2013-04-30 16:41:00,93.6,52.5,29.57,SSE,159,7.0,16.0,25,0.00,,,0.00,meteohub,2013-04-30 21:41:00,
2013-04-30 16:46:00,93.7,51.4,29.57,South,173,2.0,16.0,24,0.00,,,0.00,meteohub,2013-04-30 21:46:00,
2013-04-30 16:51:00,93.9,51.6,29.56,SW,219,5.0,16.0,24,0.00,,,0.00,meteohub,2013-04-30 21:51:00,
2013-04-30 16:56:00,94.3,52.0,29.56,SE,146,2.0,16.0,24,0.00,,,0.00,meteohub,2013-04-30 21:56:00,
2013-04-30 17:01:00,93.9,51.6,29.56,SE,144,8.0,16.0,24,0.00,,,0.00,meteohub,2013-04-30 22:01:00,
2013-04-30 17:06:00,93.2,52.2,29.56,WSW,238,0.0,16.0,25,0.00,,,0.00,meteohub,2013-04-30 22:06:00,
2013-04-30 17:11:00,93.0,52.0,29.56,SSE,159,6.0,15.0,25,0.00,,,0.00,meteohub,2013-04-30 22:11:00,
2013-04-30 17:16:00,92.8,51.8,29.55,SSE,156,6.0,15.0,25,0.00,,,0.00,meteohub,2013-04-30 22:16:00,
2013-04-30 17:21:00,92.8,51.8,29.55,South,169,12.0,15.0,25,0.00,,,0.00,meteohub,2013-04-30 22:21:00,
2013-04-30 17:27:00,92.7,51.6,29.56,SE,144,5.0,15.0,25,0.00,,,0.00,meteohub,2013-04-30 22:27:00,
2013-04-30 17:32:00,92.7,51.6,29.56,SSE,148,1.0,15.0,25,0.00,,,0.00,meteohub,2013-04-30 22:32:00,
2013-04-30 17:37:00,92.7,51.6,29.56,SE,146,0.0,18.0,25,0.00,,,0.00,meteohub,2013-04-30 22:37:00,
2013-04-30 17:42:00,92.8,51.8,29.55,SE,132,1.0,18.0,25,0.00,,,0.00,meteohub,2013-04-30 22:42:00,
2013-04-30 17:47:00,93.0,52.0,29.55,ESE,116,1.0,18.0,25,0.00,,,0.00,meteohub,2013-04-30 22:47:00,
2013-04-30 17:52:00,93.0,52.0,29.55,SSE,157,6.0,18.0,25,0.00,,,0.00,meteohub,2013-04-30 22:52:00,
2013-04-30 17:57:00,93.2,52.2,29.55,ESE,118,7.0,17.0,25,0.00,,,0.00,meteohub,2013-04-30 22:57:00,
2013-04-30 18:02:00,93.4,52.3,29.55,SE,136,0.0,17.0,25,0.00,,,0.00,meteohub,2013-04-30 23:02:00,
2013-04-30 18:07:00,93.6,52.5,29.55,SE,130,12.0,17.0,25,0.00,,,0.00,meteohub,2013-04-30 23:07:00,
2013-04-30 18:12:00,93.2,52.2,29.55,SSE,150,6.0,17.0,25,0.00,,,0.00,meteohub,2013-04-30 23:12:00,
2013-04-30 18:17:00,93.0,53.1,29.55,ESE,118,2.0,17.0,26,0.00,,,0.00,meteohub,2013-04-30 23:17:00,
2013-04-30 18:22:00,92.7,52.7,29.55,SE,145,11.0,17.0,26,0.00,,,0.00,meteohub,2013-04-30 23:22:00,
2013-04-30 18:27:00,92.1,54.3,29.55,ESE,123,1.0,18.0,28,0.00,,,0.00,meteohub,2013-04-30 23:27:00,
2013-04-30 18:32:00,91.9,55.2,29.55,ESE,117,1.0,18.0,29,0.00,,,0.00,meteohub,2013-04-30 23:32:00,
2013-04-30 18:37:00,91.8,55.0,29.55,ESE,110,7.0,18.0,29,0.00,,,0.00,meteohub,2013-04-30 23:37:00,
2013-04-30 18:42:00,91.6,55.8,29.55,East,101,2.0,18.0,30,0.00,,,0.00,meteohub,2013-04-30 23:42:00,
2013-04-30 18:47:00,91.2,56.3,29.55,ESE,120,12.0,18.0,31,0.00,,,0.00,meteohub,2013-04-30 23:47:00,
2013-04-30 18:52:00,90.9,56.1,29.55,ESE,122,6.0,18.0,31,0.00,,,0.00,meteohub,2013-04-30 23:52:00,
2013-04-30 18:57:00,90.7,56.8,29.55,ESE,123,9.0,18.0,32,0.00,,,0.00,meteohub,2013-04-30 23:57:00,
2013-04-30 19:02:00,90.3,56.5,29.56,SSE,160,0.0,18.0,32,0.00,,,0.00,meteohub,2013-05-01 00:02:00,
2013-04-30 19:07:00,90.1,56.3,29.55,SSE,147,11.0,18.0,32,0.00,,,0.00,meteohub,2013-05-01 00:07:00,
2013-04-30 19:12:00,90.0,57.0,29.56,SE,128,2.0,18.0,33,0.00,,,0.00,meteohub,2013-05-01 00:12:00,
2013-04-30 19:17:00,89.4,56.5,29.56,SSE,154,0.0,18.0,33,0.00,,,0.00,meteohub,2013-05-01 00:17:00,
2013-04-30 19:22:00,89.2,57.2,29.56,South,169,5.0,18.0,34,0.00,,,0.00,meteohub,2013-05-01 00:22:00,
2013-04-30 19:27:00,88.9,56.8,29.56,East,90,6.0,19.0,34,0.00,,,0.00,meteohub,2013-05-01 00:27:00,
2013-04-30 19:32:00,88.5,56.5,29.56,East,99,5.0,19.0,34,0.00,,,0.00,meteohub,2013-05-01 00:32:00,
2013-04-30 19:37:00,88.2,57.0,29.56,ESE,121,0.0,19.0,35,0.00,,,0.00,meteohub,2013-05-01 00:37:00,
2013-04-30 19:42:00,88.0,56.8,29.56,ESE,116,16.0,19.0,35,0.00,,,0.00,meteohub,2013-05-01 00:42:00,
2013-04-30 19:47:00,87.4,57.9,29.56,ESE,123,8.0,16.0,37,0.00,,,0.00,meteohub,2013-05-01 00:47:00,
2013-04-30 19:52:00,86.9,57.6,29.56,ESE,115,2.0,16.0,37,0.00,,,0.00,meteohub,2013-05-01 00:52:00,
2013-04-30 19:57:00,86.5,57.9,29.56,ESE,120,6.0,16.0,38,0.00,,,0.00,meteohub,2013-05-01 00:57:00,
2013-04-30 20:02:00,86.0,58.1,29.57,SE,141,0.0,20.0,39,0.00,,,0.00,meteohub,2013-05-01 01:02:00,
2013-04-30 20:07:00,85.5,58.5,29.57,SE,142,14.0,20.0,40,0.00,,,0.00,meteohub,2013-05-01 01:07:00,
2013-04-30 20:12:00,84.9,58.6,29.57,ESE,108,8.0,20.0,41,0.00,,,0.00,meteohub,2013-05-01 01:12:00,
2013-04-30 20:17:00,84.6,58.3,29.57,ESE,123,4.0,19.0,41,0.00,,,0.00,meteohub,2013-05-01 01:17:00,
2013-04-30 20:22:00,84.0,58.5,29.57,ESE,118,5.0,19.0,42,0.00,,,0.00,meteohub,2013-05-01 01:22:00,
2013-04-30 20:27:00,83.7,58.1,29.57,SE,127,4.0,17.0,42,0.00,,,0.00,meteohub,2013-05-01 01:27:00,
2013-04-30 20:32:00,83.5,58.6,29.58,NE,36,5.0,17.0,43,0.00,,,0.00,meteohub,2013-05-01 01:32:00,
2013-04-30 20:37:00,82.9,58.1,29.58,SE,124,17.0,19.0,43,0.00,,,0.00,meteohub,2013-05-01 01:37:00,
2013-04-30 20:42:00,82.8,58.6,29.58,NE,55,1.0,19.0,44,0.00,,,0.00,meteohub,2013-05-01 01:42:00,
2013-04-30 20:47:00,82.4,58.3,29.59,ESE,115,5.0,19.0,44,0.00,,,0.00,meteohub,2013-05-01 01:47:00,
2013-04-30 20:52:00,82.2,58.8,29.59,SE,128,1.0,19.0,45,0.00,,,0.00,meteohub,2013-05-01 01:52:00,
2013-04-30 20:57:00,81.9,58.5,29.59,SE,128,12.0,18.0,45,0.00,,,0.00,meteohub,2013-05-01 01:57:00,
2013-04-30 21:02:00,81.7,58.3,29.60,South,175,7.0,18.0,45,0.00,,,0.00,meteohub,2013-05-01 02:02:00,
2013-04-30 21:07:00,81.3,58.6,29.60,SE,136,8.0,20.0,46,0.00,,,0.00,meteohub,2013-05-01 02:07:00,
2013-04-30 21:12:00,81.1,58.5,29.60,ESE,111,1.0,20.0,46,0.00,,,0.00,meteohub,2013-05-01 02:12:00,
2013-04-30 21:17:00,81.0,58.8,29.61,NNE,24,4.0,14.0,47,0.00,,,0.00,meteohub,2013-05-01 02:17:00,
2013-04-30 21:22:00,80.6,58.5,29.61,SE,140,8.0,14.0,47,0.00,,,0.00,meteohub,2013-05-01 02:22:00,
2013-04-30 21:27:00,80.4,58.3,29.62,SSE,148,0.0,15.0,47,0.00,,,0.00,meteohub,2013-05-01 02:27:00,
2013-04-30 21:32:00,80.2,58.8,29.62,SSE,152,4.0,15.0,48,0.00,,,0.00,meteohub,2013-05-01 02:32:00,
2013-04-30 21:37:00,80.1,58.6,29.62,ESE,121,7.0,18.0,48,0.00,,,0.00,meteohub,2013-05-01 02:37:00,
2013-04-30 21:42:00,79.9,58.5,29.63,ENE,71,2.0,18.0,48,0.00,,,0.00,meteohub,2013-05-01 02:42:00,
2013-04-30 21:47:00,79.5,58.1,29.62,SE,134,2.0,17.0,48,0.00,,,0.00,meteohub,2013-05-01 02:47:00,
2013-04-30 21:52:00,79.5,58.6,29.63,SSE,160,6.0,17.0,49,0.00,,,0.00,meteohub,2013-05-01 02:52:00,
2013-04-30 21:57:00,79.3,58.5,29.63,SE,146,2.0,21.0,49,0.00,,,0.00,meteohub,2013-05-01 02:57:00,
2013-04-30 22:02:00,79.2,58.3,29.63,SE,129,11.0,21.0,49,0.00,,,0.00,meteohub,2013-05-01 03:02:00,
2013-04-30 22:07:00,79.0,58.1,29.64,ESE,105,7.0,16.0,49,0.00,,,0.00,meteohub,2013-05-01 03:07:00,
2013-04-30 22:12:00,78.8,58.1,29.63,SE,128,5.0,16.0,49,0.00,,,0.00,meteohub,2013-05-01 03:12:00,
2013-04-30 22:17:00,78.6,58.5,29.64,SSE,167,8.0,23.0,50,0.00,,,0.00,meteohub,2013-05-01 03:17:00,
2013-04-30 22:22:00,78.4,58.3,29.64,SE,131,7.0,23.0,50,0.00,,,0.00,meteohub,2013-05-01 03:22:00,
2013-04-30 22:27:00,78.4,58.3,29.63,East,101,12.0,19.0,50,0.00,,,0.00,meteohub,2013-05-01 03:27:00,
2013-04-30 22:32:00,78.3,58.1,29.64,ESE,121,8.0,19.0,50,0.00,,,0.00,meteohub,2013-05-01 03:32:00,
2013-04-30 22:37:00,78.1,57.9,29.64,East,98,9.0,18.0,50,0.00,,,0.00,meteohub,2013-05-01 03:37:00,
2013-04-30 22:42:00,78.1,57.9,29.64,SE,135,4.0,18.0,50,0.00,,,0.00,meteohub,2013-05-01 03:42:00,
2013-04-30 22:47:00,77.7,58.1,29.64,ESE,110,5.0,16.0,51,0.00,,,0.00,meteohub,2013-05-01 03:47:00,
2013-04-30 22:52:00,77.7,58.1,29.64,SE,128,7.0,16.0,51,0.00,,,0.00,meteohub,2013-05-01 03:52:00,
2013-04-30 22:57:00,77.5,57.9,29.64,South,174,9.0,16.0,51,0.00,,,0.00,meteohub,2013-05-01 03:57:00,
2013-04-30 23:01:00,77.5,57.9,29.65,ESE,121,5.0,16.0,51,0.00,,,0.00,meteohub,2013-05-01 04:01:00,
2013-04-30 23:06:00,77.4,57.7,29.65,ESE,102,0.0,16.0,51,0.00,,,0.00,meteohub,2013-05-01 04:06:00,
2013-04-30 23:11:00,77.2,57.7,29.67,East,94,1.0,16.0,51,0.00,,,0.00,meteohub,2013-05-01 04:11:00,
2013-04-30 23:16:00,77.0,58.1,29.69,North,0,3.0,14.0,52,0.00,,,0.00,meteohub,2013-05-01 04:16:00,
2013-04-30 23:21:00,76.8,57.9,29.70,NE,56,3.0,14.0,52,0.00,,,0.00,meteohub,2013-05-01 04:21:00,
2013-04-30 23:26:00,76.8,57.9,29.70,ENE,63,0.0,11.0,52,0.00,,,0.00,meteohub,2013-05-01 04:26:00,
2013-04-30 23:31:00,76.6,58.3,29.72,NNW,348,2.0,11.0,53,0.00,,,0.00,meteohub,2013-05-01 04:31:00,
2013-04-30 23:36:00,76.6,57.7,29.74,NNW,346,9.0,12.0,52,0.00,,,0.00,meteohub,2013-05-01 04:36:00,
2013-04-30 23:42:00,76.8,57.9,29.74,NE,38,0.0,12.0,52,0.00,,,0.00,meteohub,2013-05-01 04:42:00,
2013-04-30 23:47:00,76.8,57.9,29.74,NNW,343,4.0,15.0,52,0.00,,,0.00,meteohub,2013-05-01 04:47:00,
2013-04-30 23:52:00,77.0,58.1,29.75,NW,326,8.0,15.0,52,0.00,,,0.00,meteohub,2013-05-01 04:52:00,
2013-04-30 23:57:00,77.0,57.6,29.75,NNW,335,1.0,11.0,51,0.00,,,0.00,meteohub,2013-05-01 04:57:00,